Location: Heisede
(52.2582°N, 9.8523°E)
Time: 20:41:07
(UTC+00:00)

CZ-4C R/B - Pass Details

Date: 13 January 2026
Orbit: 482 x 1496 km, 63.4° (Epoch: 16 February)

Event Time Altitude Azimuth Distance (km) Brightness Sun altitude
Exits shadow 03:34:52 27° 18° (NNE) 1,636 3.8 -34.2°
Drops below altitude 10° 03:38:50 10° 48° (NE) 2,798 5.5 -33.6°
Sets 03:42:08 0° 58° (ENE) 3,940 6.5 -33.1°
